VE7PRT-1 Weather Reports


time (UTC)temp
C
wind
direction
speed
KPH
gust
KPH
rain 1hr
cm
rain 24hr
cm
rain mn
cm
humidity
%
barometer
mb
20260504130319 10 359 0.0 0.0 0.00 0.00 0.00 95 1009.2
20260504110239 11 359 0.0 0.0 0.00 0.00 0.00 95 1009.2
20260504080948 12 359 0.0 0.0 0.00 0.00 0.00 94 1009.4
20260504070239 13 359 0.0 0.0 0.00 0.00 0.00 92 1009.5
20260504045739 15 359 0.0 0.0 0.00 0.00 0.00 82 1009.8
20260504044304 16 359 0.0 0.0 0.00 0.00 0.00 81 1009.8
20260504042847 16 359 0.0 0.0 0.00 0.00 0.00 79 1009.8
20260504041519 17 359 0.0 0.0 0.00 0.00 0.00 76 1009.8
20260504040147 17 359 0.0 0.0 0.00 0.00 0.00 75 1009.8
20260504034917 19 359 0.0 0.0 0.00 0.00 0.00 65 1009.7
20260504033530 19 359 0.0 0.0 0.00 0.00 0.00 65 1009.7
20260504032133 20 359 0.0 0.0 0.00 0.00 0.00 61 1009.8
20260504030727 20 359 0.0 0.0 0.00 0.00 0.00 59 1009.9
20260504025354 21 359 0.0 0.0 0.00 0.00 0.00 57 1010.0
20260504024039 21 359 0.0 0.0 0.00 0.00 0.00 55 1010.2
20260504022805 21 359 0.0 0.0 0.00 0.00 0.00 54 1010.2
20260504021439 21 359 1.6 0.0 0.00 0.00 0.00 52 1010.4
20260504020019 22 359 1.6 0.0 0.00 0.00 0.00 50 1010.5
20260504014654 22 359 3.2 0.0 0.00 0.00 0.00 48 1010.6
20260504013424 22 359 3.2 0.0 0.00 0.00 0.00 47 1010.8
20260504012224 23 359 1.6 0.0 0.00 0.00 0.00 46 1010.9
20260504010739 24 359 3.2 0.0 0.00 0.00 0.00 45 1011.1
20260504005454 24 359 3.2 1.6 0.00 0.00 0.00 43 1011.2
20260504004154 25 359 1.6 0.0 0.00 0.00 0.00 42 1011.2
20260504002724 25 359 4.8 1.6 0.00 0.00 0.00 44 1011.4
20260504001444 25 359 3.2 0.0 0.00 0.00 0.00 41 1011.5
20260504000059 26 359 6.4 19.3 0.00 0.00 0.00 42 1011.6
20260503234800 26 359 4.8 3.2 0.00 0.00 0.00 44 1011.7
20260503233424 26 359 4.8 4.8 0.00 0.00 0.00 42 1011.8
20260503232027 26 359 4.8 0.0 0.00 0.00 0.00 43 1012.0
20260503230554 25 359 4.8 6.4 0.00 0.00 0.00 43 1012.1
20260503225301 25 359 4.8 0.0 0.00 0.00 0.00 43 1012.3
20260503225224 25 359 4.8 0.0 0.00 0.00 0.00 43 1012.3
20260503223754 25 359 6.4 4.8 0.00 0.00 0.00 44 1012.4
20260503222344 25 359 6.4 0.0 0.00 0.00 0.00 46 1012.6
20260503220852 25 359 4.8 6.4 0.00 0.00 0.00 45 1012.8
20260503215619 24 359 4.8 6.4 0.00 0.00 0.00 47 1012.9
20260503214236 23 359 3.2 4.8 0.00 0.00 0.00 51 1012.9
20260503212954 23 359 3.2 0.0 0.00 0.00 0.00 47 1012.9
20260503211704 23 359 3.2 6.4 0.00 0.00 0.00 49 1013.0
20260503210347 23 359 3.2 4.8 0.00 0.00 0.00 49 1013.2
20260503205038 22 359 3.2 0.0 0.00 0.00 0.00 51 1013.2
20260503203609 22 359 3.2 8.0 0.00 0.00 0.00 53 1013.3
20260503202347 22 359 1.6 0.0 0.00 0.00 0.00 52 1013.4
20260503201052 22 359 1.6 0.0 0.00 0.00 0.00 53 1013.6
20260503195658 22 359 3.2 1.6 0.00 0.00 0.00 53 1013.9
20260503194444 22 359 3.2 12.9 0.00 0.00 0.00 55 1014.0
20260503193239 21 359 1.6 0.0 0.00 0.00 0.00 59 1014.0
20260503191754 20 359 1.6 3.2 0.00 0.00 0.00 60 1014.2
20260503190557 20 359 1.6 0.0 0.00 0.00 0.00 68 1014.1
20260503185247 19 359 0.0 0.0 0.00 0.00 0.00 70 1014.3
20260503183819 19 359 0.0 0.0 0.00 0.00 0.00 71 1014.3
20260503182534 18 359 1.6 0.0 0.00 0.00 0.00 71 1014.3
20260503181154 18 359 0.0 0.0 0.00 0.00 0.00 74 1014.3
20260503175854 18 359 0.0 0.0 0.00 0.00 0.00 76 1014.3
20260503174359 17 359 0.0 0.0 0.00 0.00 0.00 77 1014.4
20260503172949 17 359 4.8 8.0 0.00 0.00 0.00 76 1014.4
20260503171539 19 359 4.8 6.4 0.00 0.00 0.00 70 1014.3
20260503170139 10 359 0.0 0.0 0.00 0.00 0.00 96 1014.4